Simultaneous Nadir Overpasses (SNOs) Predictions

Prediction of SNOs between NOAA-19 and TERRA Satellite Orbit:

Table of predicted SNOs for the next 14.0 days since TLE Epoch: 4/2/2015
Index Date (NOAA-19) Time (NOAA-19) Lat,Lon (NOAA-19) SZA (NOAA-19 ) Date (TERRA) Time (TERRA) Lat,Lon (TERRA) SZA (TERRA ) Distance(km) Time Diff (sec)
1 04/02/2015 10:14:24 71.77, 29.58 66.81 04/02/2015 10:15:00 71.75, 29.65 66.79 3.32 36
2 04/02/2015 11:05:26 -71.65,-162.95 113.33 04/02/2015 11:04:30 -71.63,-162.93 113.36 2.46 56
3 04/04/2015 14:58:00 72.26, -42.20 66.45 04/04/2015 14:59:09 72.18, -40.67 66.39 52.60 69
4 04/04/2015 15:48:54 -71.71, 126.11 114.11 04/04/2015 15:48:46 -71.68, 126.10 114.14 2.73 8
5 04/06/2015 20:32:22 -71.78, 55.15 114.87 04/06/2015 20:33:01 -71.77, 55.18 114.88 1.39 39
6 04/06/2015 21:23:17 71.65,-137.34 64.99 04/06/2015 21:22:28 71.68,-137.34 65.02 3.27 49
7 04/09/2015 01:16:00 -72.37, -16.84 115.12 04/09/2015 01:17:09 -72.21, -15.11 115.24 60.97 69
8 04/09/2015 02:06:45 71.75, 151.65 64.27 04/09/2015 02:06:43 71.74, 151.71 64.26 2.23 2
9 04/09/2015 02:57:33 -70.86, -39.51 116.61 04/09/2015 02:56:26 -70.92, -41.99 116.60 90.67 67
10 04/11/2015 06:50:12 71.81, 80.71 63.52 04/11/2015 06:50:58 71.78, 80.71 63.49 3.05 46
11 04/11/2015 07:41:15 -71.67,-111.80 116.64 04/11/2015 07:40:28 -71.67,-111.85 116.64 1.62 47
12 04/13/2015 11:33:54 72.64, 8.22 63.52 04/13/2015 11:35:00 72.50, 10.93 63.43 91.47 66
13 04/13/2015 12:24:42 -71.73, 177.26
